sat.trackr.live / text

‹ back to catalog

STARLINK-3535

NORAD 51722 · 2022-016J

PAYLOAD ACTIVE UNKNOWN

§ Identity

Operator
Country
US
Launch date
2022-02-21
Launch site
AFETR
Launch vehicle
Mass (kg)
RCS (m²)

Purposes: comms

External: N2YO · Heavens-Above · Gunter

§ Orbital elements

Epoch: 2026-05-24T22:56:46.074048Z

Period
95.44 min
Inclination
53.2140°
Eccentricity
0.0000931
Mean motion
15.08835297 rev/d
Perigee alt
539.1 km
Apogee alt
540.4 km
Semi-major
6,917.9 km
B*
5.1642e-5
RAAN
346.7459°
Arg perigee
53.6382°
Mean anomaly
306.4696°
Rev number
23,493

§ Raw data

STARLINK-35351 51722U 22016J   26144.95608882  .00000534  00000+0  51642-4 0  99942 51722  53.2140 346.7459 0000931  53.6382 306.4696 15.08835297234935

JSON: /api/v1/satellites/51722 · /tle

For live sub-satellite position, see the globe view (requires WebGL).

§ Visibility from observer

Set your observer location to see the next 7 days of passes ≥ 10°. The values pass through the URL so the page stays shareable.

No JS? Fill the form by hand. The geolocation button needs JavaScript.